This is the latest recevied weather packets stored in our database for station/object EA7RX-4. If no packets are shown the sender has not sent any weather packets the latest 10 day(s).
| Time | Temp. | Humidity | Pressure | Rain* | Wind** | Luminosity | Snow |
|---|---|---|---|---|---|---|---|
| 1787390403 | 23.89° C | 57% | 1015.8 hPa | 0 mm | - | 272 W/m² | - |
| 1787389803 | 23.89° C | 58% | 1015.8 hPa | 0 mm | - | 266 W/m² | - |
| 1787389203 | 23.33° C | 58% | 1015.7 hPa | 0 mm | - | 316 W/m² | - |
| 1787388603 | 23.33° C | 60% | 1015.6 hPa | 0 mm | - | 489 W/m² | - |
| 1787388003 | 23.33° C | 60% | 1015.7 hPa | 0 mm | - | 454 W/m² | - |
| 1787387403 | 22.22° C | 62% | 1015.7 hPa | 0 mm | - | 209 W/m² | - |
| 1787386803 | 22.78° C | 61% | 1015.5 hPa | 0 mm | - | 402 W/m² | - |
| 1787386203 | 22.78° C | 62% | 1015.4 hPa | 0 mm | - | 103 W/m² | - |
| 1787385603 | 21.67° C | 65% | 1015.1 hPa | 0 mm | - | 321 W/m² | - |
| 1787385003 | 21.67° C | 65% | 1015.5 hPa | 0 mm | - | 159 W/m² | - |
| 1787384403 | 21.67° C | 65% | 1015.4 hPa | 0 mm | - | 258 W/m² | - |
| 1787383803 | 21.67° C | 67% | 1015.3 hPa | 0 mm | - | 132 W/m² | - |
| 1787383203 | 21.11° C | 68% | 1015.3 hPa | 0 mm | - | 199 W/m² | - |
| 1787382603 | 20.56° C | 66% | 1015.4 hPa | 0 mm | - | 104 W/m² | - |
| 1787382003 | 20.56° C | 67% | 1015.4 hPa | 0 mm | - | 170 W/m² | - |
| 1787381403 | 20° C | 68% | 1015.2 hPa | 0 mm | - | 143 W/m² | - |
| 1787380803 | 20° C | 68% | 1015.1 hPa | 0 mm | - | 104 W/m² | - |
| 1787380203 | 19.44° C | 68% | 1015.2 hPa | 0 mm | - | 80 W/m² | - |
| 1787379603 | 19.44° C | 68% | 1014.9 hPa | 0 mm | - | 55 W/m² | - |
| 1787379003 | 18.89° C | 68% | 1014.9 hPa | 0 mm | - | 37 W/m² | - |
| 1787378403 | 18.89° C | 68% | 1014.6 hPa | 0 mm | - | 26 W/m² | - |
| 1787377803 | 18.89° C | 68% | 1014.8 hPa | 0 mm | - | 14 W/m² | - |
| 1787377203 | 19.44° C | 68% | 1014.6 hPa | 0 mm | - | 7 W/m² | - |
| 1787376603 | 19.44° C | 67% | 1014.5 hPa | 0 mm | - | 3 W/m² | - |
| 1787376003 | 19.44° C | 69% | 1014.5 hPa | 0 mm | - | 0 W/m² | - |
* Rain latest hour (hover to see other rain measurements)
** Current wind speed in m/s (hover to see current wind gust speed)